Temp
-7 -7 -8 -8 -8 -8 -8 -10 -10 -10 -10 -10 -10 -10 -8 -9 -9 -9 -8 -8 -8 -8 -8 -8 -8 -8 -8 -9 -9 -9 -9 -9 -10 -10 -10 -10 -10 -11 -11 -11 -11 -11 -11 -11
-7 -8 -8 -8 -8 -8 -9 -9 -10 -10 -10 -10 -10 -10 -11 -9 -9 -10 -10 -9 -9 -9 -9 -9 -8 -8 -9 -9 -9 -9 -10 -10 -10 -10 -11 -10 -11 -11 -11 -11 -11 -11 -11 -11
-8 -8 -8 -8 -9 -8 -9 -9 -9 -9 -10 -10 -10 -10 -10 -10 -11 -10 -11 -11 -11 -10 -11 -10 -9 -9 -9 -9 -9 -10 -10 -11 -11 -11 -11 -11 -11 -11 -11 -11 -12 -12 -12 -12
-8 -9 -8 -8 -8 -9 -8 -9 -10 -9 -10 -10 -11 -10 -9 -9 -10 -11 -11 -11 -12 -11 -11 -11 -10 -10 -9 -9 -9 -10 -11 -11 -11 -11 -12 -12 -11 -12 -12 -12 -12 -12 -12 -12
-8 -9 -10 -10 -8 -9 -9 -10 -9 -9 -9 -9 -10 -9 -9 -9 -10 -11 -11 -11 -11 -12 -12 -11 -10 -10 -10 -11 -11 -11 -11 -12 -11 -12 -12 -11 -12 -12 -12 -12 -12 -12 -12 -12
-8 -9 -9 -10 -8 -9 -9 -10 -9 -9 -9 -9 -9 -11 -10 -10 -11 -11 -11 -11 -11 -11 -11 -11 -11 -11 -11 -10 -11 -12 -12 -12 -12 -12 -12 -12 -12 -13 -13 -12 -12 -12 -12 -12
-9 -9 -9 -9 -10 -10 -10 -10 -9 -10 -10 -10 -11 -10 -10 -11 -11 -11 -11 -11 -11 -11 -11 -11 -11 -11 -10 -11 -12 -12 -12 -12 -12 -12 -12 -12 -12 -12 -12 -12 -12 -12 -12 -13
-9 -9 -10 -11 -11 -11 -11 -11 -11 -10 -10 -10 -12 -11 -11 -11 -12 -11 -12 -12 -11 -12 -11 -12 -11 -11 -11 -12 -13 -13 -13 -13 -12 -12 -12 -13 -12 -12 -12 -12 -12 -12 -13 -13
-10 -9 -11 -12 -12 -11 -11 -11 -11 -11 -11 -11 -10 -11 -12 -11 -12 -11 -11 -12 -11 -12 -12 -12 -11 -11 -11 -12 -12 -13 -13 -12 -12 -12 -13 -12 -12 -12 -12 -13 -13 -13 -14 -14
-11 -11 -11 -12 -12 -13 -13 -12 -12 -13 -11 -11 -11 -12 -12 -11 -11 -11 -12 -12 -12 -12 -11 -11 -11 -11 -11 -12 -12 -13 -12 -13 -13 -13 -12 -12 -12 -12 -13 -13 -13 -14 -14 -14
-13 -12 -11 -12 -13 -13 -13 -12 -12 -12 -12 -12 -11 -11 -12 -12 -12 -12 -12 -12 -12 -12 -12 -11 -11 -12 -13 -13 -13 -12 -13 -13 -13 -12 -12 -12 -13 -13 -13 -13 -14 -14 -14 -14
-12 -12 -12 -11 -12 -13 -13 -12 -13 -13 -13 -13 -13 -13 -12 -12 -13 -12 -12 -12 -12 -13 -11 -12 -12 -13 -13 -13 -12 -12 -13 -13 -12 -12 -12 -13 -13 -13 -13 -14 -14 -14 -14 -14
-13 -12 -12 -12 -12 -13 -12 -12 -13 -12 -13 -13 -13 -13 -12 -12 -12 -12 -13 -12 -12 -12 -13 -13 -12 -12 -12 -12 -12 -12 -12 -12 -12 -12 -13 -13 -13 -13 -14 -14 -14 -14 -14 -14
-13 -13 -13 -13 -13 -13 -13 -13 -13 -13 -13 -13 -13 -12 -13 -12 -12 -12 -12 -11 -13 -13 -13 -12 -12 -12 -12 -12 -12 -12 -12 -12 -12 -13 -13 -13 -13 -13 -14 -14 -14 -14 -14 -14
-13 -13 -13 -12 -12 -13 -13 -12 -13 -12 -13 -12 -13 -13 -13 -14 -13 -12 -13 -12 -13 -13 -14 -14 -12 -12 -13 -12 -12 -12 -12 -12 -12 -13 -13 -13 -13 -14 -14 -14 -14 -14 -14 -14
-12 -12 -12 -12 -12 -12 -12 -13 -13 -13 -13 -12 -11 -12 -14 -13 -13 -13 -13 -13 -13 -13 -13 -13 -13 -13 -12 -12 -12 -12 -13 -13 -13 -13 -13 -13 -14 -13 -14 -14 -14 -14 -14 -14
-11 -12 -12 -12 -12 -12 -11 -12 -13 -14 -13 -13 -12 -12 -13 -13 -13 -13 -13 -13 -13 -14 -14 -13 -13 -13 -13 -13 -12 -13 -13 -13 -13 -12 -13 -13 -14 -14 -14 -14 -15 -14 -14 -14
-12 -12 -12 -12 -12 -12 -12 -13 -13 -13 -13 -13 -13 -14 -14 -13 -14 -13 -12 -12 -13 -14 -14 -13 -13 -13 -13 -13 -13 -13 -13 -13 -12 -13 -13 -13 -14 -14 -14 -14 -15 -15 -14 -14
-13 -13 -13 -12 -12 -12 -12 -13 -12 -12 -12 -13 -14 -15 -15 -13 -13 -12 -14 -13 -14 -14 -14 -14 -13 -13 -13 -13 -13 -13 -13 -12 -12 -13 -13 -14 -14 -15 -15 -14 -14 -15 -14 -14
-14 -13 -13 -13 -12 -12 -13 -12 -12 -12 -12 -13 -13 -14 -14 -14 -13 -14 -15 -14 -14 -15 -13 -13 -13 -13 -13 -13 -13 -13 -12 -12 -13 -13 -14 -14 -14 -14 -14 -14 -14 -14 -14 -14
-14 -14 -13 -13 -13 -12 -13 -12 -12 -13 -12 -13 -13 -14 -14 -14 -14 -13 -14 -14 -14 -14 -14 -13 -13 -13 -13 -13 -13 -13 -13 -13 -13 -14 -14 -14 -14 -14 -14 -14 -14 -14 -14 -14
-15 -14 -14 -14 -13 -13 -12 -13 -13 -13 -12 -13 -13 -14 -15 -14 -13 -14 -14 -14 -14 -14 -14 -13 -13 -13 -13 -13 -13 -13 -13 -13 -13 -14 -14 -14 -14 -14 -14 -14 -14 -14 -14 -14
-15 -15 -14 -15 -15 -14 -13 -13 -14 -13 -13 -13 -13 -14 -14 -14 -15 -14 -13 -14 -15 -15 -14 -14 -13 -13 -13 -13 -13 -13 -13 -13 -13 -14 -15 -15 -15 -15 -14 -14 -14 -14 -14 -14
-16 -15 -15 -15 -15 -15 -14 -13 -14 -14 -14 -13 -13 -14 -14 -14 -14 -14 -14 -14 -14 -14 -15 -14 -13 -13 -13 -13 -13 -13 -13 -13 -13 -14 -15 -15 -16 -15 -15 -15 -14 -15 -15 -15
-16 -16 -16 -16 -15 -15 -15 -14 -14 -14 -14 -14 -14 -15 -14 -15 -15 -14 -14 -14 -14 -14 -14 -14 -13 -14 -14 -13 -13 -13 -13 -14 -14 -15 -15 -16 -16 -16 -15 -16 -15 -15 -15 -15
-16 -16 -16 -16 -16 -16 -16 -16 -15 -15 -15 -15 -15 -14 -14 -15 -15 -14 -14 -14 -14 -15 -14 -14 -14 -14 -14 -14 -13 -14 -13 -14 -14 -15 -16 -16 -17 -16 -15 -15 -15 -15 -15 -15
Height
5878 5880 5883 5884 5885 5887 5886 5886 5889 5894 5898 5894 5892 5892 5892 5893 5888 5887 5886 5886 5886 5884 5881 5880 5880 5880 5879 5876 5873 5872 5870 5867 5864 5859 5856 5853 5848 5842 5836 5830 5823 5818 5812 5806
5876 5877 5877 5879 5881 5883 5884 5883 5886 5889 5892 5890 5890 5888 5886 5890 5885 5882 5881 5880 5879 5878 5876 5876 5875 5875 5874 5872 5869 5867 5865 5861 5856 5853 5848 5843 5839 5833 5827 5821 5814 5808 5800 5793
5872 5872 5873 5874 5877 5879 5880 5881 5882 5884 5889 5887 5887 5884 5884 5886 5883 5879 5876 5875 5875 5873 5872 5869 5868 5866 5865 5865 5864 5863 5859 5853 5848 5845 5840 5835 5829 5823 5816 5809 5801 5794 5787 5780
5869 5867 5868 5870 5874 5874 5876 5879 5878 5881 5883 5882 5882 5879 5881 5882 5879 5878 5875 5872 5872 5871 5869 5866 5864 5859 5857 5858 5856 5855 5853 5848 5843 5836 5831 5825 5818 5812 5804 5798 5791 5784 5776 5769
5865 5863 5864 5866 5869 5870 5873 5871 5872 5874 5874 5874 5878 5874 5873 5875 5874 5872 5872 5870 5869 5866 5864 5863 5858 5853 5853 5850 5849 5848 5844 5839 5834 5828 5821 5814 5806 5799 5792 5786 5779 5772 5764 5756
5859 5858 5858 5860 5863 5865 5867 5865 5867 5867 5868 5870 5875 5873 5871 5871 5867 5864 5866 5867 5865 5860 5856 5858 5854 5852 5849 5846 5845 5838 5834 5829 5824 5818 5810 5804 5798 5791 5784 5777 5769 5761 5752 5743
5853 5854 5855 5858 5859 5860 5861 5859 5862 5863 5863 5864 5867 5866 5867 5864 5862 5862 5861 5861 5854 5854 5853 5851 5849 5846 5844 5843 5839 5834 5829 5823 5816 5810 5803 5796 5789 5782 5774 5767 5759 5749 5739 5728
5847 5850 5852 5852 5851 5855 5854 5855 5855 5857 5858 5859 5858 5860 5857 5857 5856 5859 5858 5855 5855 5847 5846 5844 5845 5843 5842 5839 5834 5830 5823 5816 5809 5802 5794 5787 5780 5772 5764 5756 5746 5735 5723 5712
5840 5842 5844 5844 5844 5847 5851 5848 5852 5851 5852 5851 5854 5856 5855 5853 5853 5852 5854 5847 5847 5844 5840 5841 5841 5840 5839 5834 5828 5821 5814 5807 5800 5792 5785 5778 5770 5763 5754 5743 5732 5720 5709 5698
5835 5836 5839 5841 5841 5840 5841 5849 5846 5844 5843 5843 5846 5849 5846 5846 5844 5843 5842 5838 5835 5836 5837 5834 5833 5832 5831 5826 5818 5810 5803 5797 5790 5784 5776 5769 5761 5752 5742 5731 5719 5709 5696 5684
5826 5828 5836 5837 5836 5837 5837 5840 5841 5840 5838 5837 5839 5841 5842 5841 5841 5837 5832 5829 5824 5829 5828 5827 5825 5825 5821 5816 5808 5801 5795 5789 5783 5775 5768 5760 5750 5740 5730 5719 5709 5700 5689 5680
5817 5818 5825 5833 5834 5832 5831 5830 5830 5829 5832 5832 5831 5833 5825 5825 5828 5830 5819 5820 5819 5818 5816 5819 5820 5820 5814 5807 5800 5794 5788 5781 5774 5767 5759 5749 5739 5730 5719 5709 5700 5690 5683 5675
5812 5814 5818 5824 5828 5827 5825 5822 5821 5823 5822 5824 5825 5823 5819 5822 5818 5816 5815 5814 5814 5812 5813 5815 5816 5813 5807 5798 5792 5787 5780 5773 5765 5758 5749 5740 5730 5720 5710 5701 5691 5683 5678 5671
5808 5811 5812 5815 5818 5820 5819 5818 5816 5815 5816 5817 5817 5817 5818 5815 5814 5811 5809 5800 5806 5808 5809 5809 5807 5801 5794 5787 5783 5778 5772 5766 5760 5751 5742 5731 5721 5710 5701 5692 5684 5679 5674 5667
5800 5802 5805 5807 5808 5810 5812 5810 5808 5808 5808 5806 5811 5809 5808 5808 5808 5806 5799 5792 5798 5803 5801 5799 5796 5793 5786 5782 5778 5773 5767 5761 5752 5743 5733 5722 5710 5700 5691 5684 5678 5674 5669 5663
5791 5795 5798 5800 5802 5803 5802 5804 5805 5802 5802 5800 5800 5800 5799 5794 5787 5793 5794 5790 5797 5797 5798 5793 5791 5786 5781 5776 5772 5767 5762 5754 5745 5735 5724 5712 5701 5692 5683 5679 5674 5670 5666 5661
5783 5788 5790 5793 5795 5796 5795 5797 5799 5796 5793 5792 5787 5788 5791 5787 5780 5781 5782 5783 5787 5788 5787 5784 5782 5779 5775 5771 5767 5762 5754 5746 5737 5726 5715 5703 5694 5684 5679 5675 5671 5667 5663 5659
5776 5780 5783 5784 5786 5787 5790 5791 5791 5788 5788 5785 5783 5776 5777 5777 5778 5771 5773 5780 5775 5779 5778 5776 5774 5772 5768 5764 5762 5756 5748 5739 5730 5719 5707 5697 5687 5681 5677 5673 5670 5665 5661 5657
5770 5772 5773 5775 5778 5780 5781 5781 5781 5781 5781 5777 5776 5774 5767 5765 5762 5770 5771 5772 5770 5770 5768 5768 5768 5765 5762 5759 5756 5749 5742 5734 5723 5712 5700 5690 5682 5678 5674 5671 5668 5665 5661 5657
5762 5763 5766 5768 5769 5770 5773 5773 5774 5775 5772 5770 5768 5766 5762 5759 5757 5755 5762 5760 5761 5763 5765 5763 5762 5759 5757 5755 5750 5744 5737 5728 5718 5706 5695 5685 5679 5675 5672 5669 5667 5664 5660 5657
5753 5755 5756 5758 5760 5762 5763 5764 5766 5768 5770 5765 5763 5757 5753 5752 5753 5751 5752 5757 5758 5757 5756 5757 5757 5755 5753 5750 5744 5739 5731 5723 5713 5701 5690 5682 5676 5671 5669 5667 5666 5663 5660 5657
5744 5746 5746 5748 5751 5754 5755 5757 5758 5760 5759 5758 5757 5752 5747 5745 5745 5745 5748 5749 5751 5752 5752 5753 5752 5751 5749 5745 5740 5734 5727 5719 5709 5698 5688 5680 5674 5670 5667 5666 5665 5663 5660 5656
5734 5737 5740 5743 5742 5744 5746 5748 5748 5750 5750 5749 5748 5747 5745 5743 5741 5742 5740 5744 5746 5748 5748 5748 5746 5746 5744 5740 5736 5730 5724 5715 5706 5696 5687 5679 5675 5671 5669 5667 5665 5662 5659 5655
5724 5727 5730 5732 5732 5736 5737 5739 5741 5743 5741 5740 5739 5738 5736 5737 5734 5736 5729 5736 5740 5743 5743 5741 5742 5740 5739 5736 5732 5727 5720 5712 5703 5694 5687 5680 5676 5673 5670 5668 5665 5662 5660 5657
5714 5720 5722 5722 5724 5727 5729 5730 5732 5733 5734 5733 5732 5731 5729 5729 5729 5732 5733 5733 5735 5735 5736 5737 5737 5736 5733 5732 5728 5723 5717 5709 5701 5693 5687 5681 5678 5675 5672 5670 5667 5664 5662 5659
5705 5710 5710 5715 5717 5720 5721 5720 5725 5727 5727 5725 5725 5724 5725 5724 5724 5726 5725 5727 5728 5730 5733 5733 5733 5731 5729 5728 5725 5719 5713 5707 5700 5693 5687 5682 5679 5677 5674 5672 5669 5666 5664 5661
Wind_Speed
15 13 11 14 14 14 17 11 13 11 21 25 28 32 28 24 31 30 29 28 25 23 23 25 24 24 25 25 27 28 31 31 32 37 38 39 41 44 45 47 50 53 55 57
15 12 16 16 17 15 16 18 22 19 16 19 21 31 34 26 35 34 32 29 26 23 27 25 26 24 23 25 27 31 32 35 38 39 41 44 44 45 47 49 52 54 56 55
16 18 20 17 17 19 20 24 28 26 21 15 25 34 38 35 32 32 30 27 28 31 31 33 33 31 29 28 29 27 29 35 40 43 44 46 47 48 50 53 56 57 56 57
16 19 18 18 13 16 14 14 27 27 28 25 25 34 33 27 21 19 22 30 33 34 39 38 36 36 38 37 36 33 32 35 40 45 47 48 49 51 53 55 56 56 57 57
14 19 18 20 18 20 16 23 26 24 29 34 31 36 33 28 27 19 27 32 34 37 38 38 36 41 40 41 43 41 39 40 43 46 48 52 53 55 57 58 57 58 58 59
16 20 22 22 19 19 20 27 27 29 30 30 20 28 30 25 27 28 23 24 34 35 37 40 40 45 44 44 41 40 42 46 47 49 53 54 55 56 57 56 57 56 59 63
18 18 23 20 20 20 21 27 25 27 30 28 20 24 24 14 19 23 26 26 36 40 43 43 45 48 46 43 38 41 42 46 49 50 52 53 55 55 54 54 56 60 64 68
20 21 15 15 22 18 21 25 27 23 25 24 19 20 26 23 30 31 27 31 36 40 46 48 50 49 46 40 37 40 43 47 49 50 51 52 51 51 52 56 60 65 67 61
22 23 18 20 19 21 16 26 21 22 20 25 25 23 18 25 30 32 31 36 37 40 46 46 43 41 35 32 37 41 46 47 49 50 50 48 48 50 54 58 64 62 59 64
21 24 23 21 17 26 25 16 21 20 26 27 21 20 31 31 32 34 31 32 44 32 32 36 35 30 32 36 41 45 46 47 49 49 46 46 48 52 56 61 58 57 62 48
20 26 24 27 21 23 25 19 24 29 33 32 31 29 24 32 36 42 46 31 29 30 41 34 33 30 36 40 44 46 45 46 47 44 43 46 49 55 59 60 51 56 50 47
31 33 25 24 27 20 25 28 26 27 34 37 36 32 35 32 30 38 21 20 21 32 43 36 30 31 38 42 46 45 44 44 42 41 44 48 52 56 60 51 51 46 41 40
37 31 30 24 25 35 34 29 28 34 36 35 37 41 41 34 33 28 43 42 34 35 35 28 29 36 40 45 44 43 43 41 40 43 46 50 53 57 53 45 49 35 32 34
33 36 36 30 29 27 33 33 35 34 37 38 37 39 37 38 33 30 31 43 29 28 40 22 32 37 46 46 44 43 40 38 40 43 47 50 55 54 46 48 33 30 29 29
39 39 34 36 35 32 32 33 39 41 33 37 36 38 47 47 45 41 41 32 27 34 24 36 33 41 47 42 40 38 37 37 41 45 48 53 54 48 48 29 27 26 27 25
33 38 38 33 31 30 31 33 31 30 32 34 28 25 28 39 55 56 48 49 32 34 41 30 36 42 41 36 36 35 34 38 42 46 51 54 48 47 30 23 24 23 22 21
23 19 26 23 23 25 29 23 22 26 30 32 39 38 30 39 47 47 44 33 38 36 30 35 40 41 37 33 32 32 35 39 44 49 54 49 48 31 21 22 20 24 20 17
30 24 24 23 23 29 26 23 25 27 26 30 27 38 41 37 29 32 29 31 24 26 34 39 39 32 32 28 29 32 36 40 46 52 50 45 38 22 20 19 21 21 17 14
31 29 29 28 27 28 28 28 31 26 23 30 29 32 38 37 42 39 38 39 28 28 29 28 26 28 27 26 28 33 37 42 48 52 47 41 30 20 20 21 20 17 13 13
35 35 34 32 30 30 29 32 31 22 26 27 28 32 35 42 42 36 38 31 17 21 24 20 24 26 24 25 28 32 37 43 48 48 43 37 25 19 18 15 13 12 12 14
38 37 38 37 33 31 32 34 30 27 25 25 26 32 36 36 35 32 26 22 23 23 20 20 25 24 23 24 27 32 37 43 47 45 40 36 22 18 16 12 6 8 10 13
32 26 29 27 32 33 33 33 34 29 28 26 25 27 30 32 34 32 20 20 21 20 18 21 24 24 23 22 27 32 36 41 46 43 38 31 21 17 10 5 6 9 13 16
40 42 38 36 32 32 33 34 33 32 30 26 30 27 27 26 29 33 26 24 19 18 20 20 21 22 22 22 27 30 34 39 44 40 35 27 19 13 9 8 8 12 15 13
41 40 40 40 43 33 35 34 30 28 31 29 31 29 27 25 25 26 20 17 15 21 19 18 20 19 18 21 24 28 32 37 41 36 31 21 15 12 9 9 9 8 8 10
43 42 37 36 37 37 34 34 30 29 28 26 27 25 26 25 19 20 25 25 24 20 15 16 17 17 17 20 22 25 30 35 37 33 26 17 12 10 7 6 7 7 10 10
40 35 49 47 39 29 22 30 28 24 25 23 26 25 25 24 24 22 28 31 19 11 13 13 14 15 16 18 21 23 28 32 34 30 24 14 12 11 6 6 9 10 11 12
Wind_Direction
235 240 242 241 242 239 241 195 240 263 298 281 284 289 282 291 286 297 305 307 304 300 298 297 292 290 292 297 302 305 310 317 309 301 306 302 303 303 304 306 306 306 305 303
236 226 224 227 237 227 243 213 214 213 224 274 279 278 279 291 299 298 299 306 311 310 307 302 299 295 293 298 301 308 314 306 299 305 303 305 303 305 307 306 305 305 305 305
240 238 234 229 237 233 221 217 216 217 203 256 273 277 282 292 288 288 293 301 310 315 316 312 307 304 299 301 309 314 305 300 301 303 303 303 305 307 307 308 311 310 307 304
239 248 248 250 250 251 255 239 236 237 221 219 243 261 267 275 286 287 294 287 288 303 303 305 303 300 304 315 318 317 307 298 300 302 305 306 308 308 308 310 310 307 304 303
240 238 242 251 256 248 253 241 250 247 235 244 240 272 280 292 285 267 276 278 284 284 285 291 296 301 312 308 307 313 309 304 305 306 307 309 311 312 311 310 308 306 305 304
251 251 242 247 259 256 249 247 251 258 263 270 282 272 275 278 261 260 256 276 269 261 271 284 295 300 300 303 318 315 310 307 310 311 310 310 310 309 308 307 307 307 305 304
248 258 262 270 275 272 266 261 262 257 261 274 265 264 285 261 245 274 276 249 248 258 270 285 286 293 300 315 313 304 305 308 309 307 307 307 307 308 307 308 308 307 307 307
248 251 255 268 267 263 261 261 266 270 271 271 256 264 269 244 247 244 259 263 268 269 278 280 288 292 296 303 302 298 306 306 306 307 307 307 308 308 310 310 311 311 310 312
254 254 218 252 267 271 270 269 275 272 274 265 262 253 275 269 262 262 251 261 263 263 269 276 280 286 292 299 307 304 301 305 308 307 308 308 309 311 312 313 314 315 316 312
241 248 230 225 246 260 266 266 246 260 266 270 268 253 250 257 262 270 273 257 260 248 265 289 295 287 300 310 306 303 306 309 307 308 308 310 312 314 315 317 318 319 318 321
260 251 227 222 225 261 273 270 243 253 258 267 270 272 267 263 268 280 276 267 261 248 274 290 304 305 312 310 305 306 308 307 307 308 311 314 314 316 318 320 318 323 323 319
220 238 234 238 230 237 259 260 234 233 239 245 256 268 260 255 262 277 239 292 253 272 284 298 303 307 302 305 308 308 306 308 309 312 316 317 317 318 319 318 318 317 318 323
222 227 253 260 237 231 241 260 252 248 241 249 249 249 259 268 256 261 274 275 271 296 283 290 294 295 303 311 309 307 309 311 313 318 319 318 318 320 320 319 321 322 325 331
241 252 246 256 257 240 243 255 262 260 258 261 256 259 256 256 255 262 277 275 273 290 290 269 304 308 316 315 310 310 311 312 317 319 319 320 321 320 321 320 317 320 324 332
245 249 242 258 262 258 248 253 260 271 286 280 279 282 263 271 260 261 261 250 267 290 267 308 314 312 313 307 307 308 309 315 320 322 322 324 323 322 319 317 323 326 330 331
237 240 248 251 252 256 260 250 258 273 280 285 293 285 289 261 267 262 261 271 272 276 276 286 307 313 310 307 309 307 313 321 324 325 327 325 324 325 321 323 324 330 333 336
262 243 249 251 250 249 253 261 256 263 277 299 298 297 280 272 280 266 276 280 288 284 287 300 305 306 304 308 307 312 320 326 328 330 330 326 329 329 329 331 330 330 326 336
254 255 253 257 260 257 264 256 264 265 276 288 301 287 285 273 277 277 279 261 268 285 283 290 299 297 305 308 308 319 325 329 331 333 330 330 332 328 334 334 335 339 335 338
260 262 261 263 264 265 260 256 260 275 298 299 297 281 287 281 286 250 265 269 284 289 293 299 292 304 307 307 314 324 328 333 335 334 332 334 333 324 325 328 333 334 348 340
249 254 258 263 266 268 267 264 269 281 291 298 295 283 282 276 289 281 270 272 286 284 286 290 298 306 305 306 318 327 331 336 337 335 337 337 327 329 326 328 327 351 348 355
246 251 254 258 260 265 262 265 273 275 290 297 293 283 285 283 284 265 234 269 278 280 288 289 295 301 299 308 323 329 335 339 339 338 342 336 334 325 318 320 317 336 348 349
248 252 257 250 260 260 265 265 268 273 280 291 295 287 287 289 289 277 263 260 275 275 283 282 295 299 301 316 324 333 338 340 341 342 345 343 350 347 340 336 315 318 329 332
241 237 234 257 253 261 259 259 264 271 279 287 290 283 280 278 264 262 248 254 271 277 280 279 295 296 304 317 324 336 339 342 343 345 348 348 353 350 351 331 330 331 335 347
237 246 250 245 250 260 259 261 255 264 273 283 291 290 288 284 274 292 219 234 259 309 271 284 288 295 307 314 326 337 341 344 345 348 350 351 353 348 1 350 349 12 40 33
245 239 236 246 257 251 260 259 252 258 270 281 285 287 286 282 290 274 248 280 260 280 270 276 290 297 308 313 328 338 344 345 348 351 351 351 350 352 2 30 27 32 19 13
242 250 247 240 246 255 241 248 251 253 258 271 279 282 272 274 285 263 270 265 251 249 267 285 290 297 309 316 327 339 344 346 349 352 351 351 10 358 356 358 1 360 357 359